[[{"header":{"parameterUnit":"m.s-1","parameterCategory":1,"la1":30.2992,"la2":30.254,"lo1":-89.0895,"lo2":-89.0443,"dy":0.0025,"dx":0.0025,"nx":19,"ny":19,"refTime":"2026-04-26T21:00:00:Z","depth":0,"parameterNumber":2,"parameterNumberName":"U-component_of_WINDS"},"data":[0,0,0,-2.8012,-2.8014,-2.8099,-2.8099,-2.8213,-2.8214,0,0,0,0,0,0,0,0,0,0,0,-2.7991,-2.7992,-2.8012,-2.8015,-2.8099,-2.8099,-2.8213,-2.8214,0,0,0,0,0,0,0,0,0,0,0,-2.799,-2.7991,-2.7993,-2.8015,-2.8099,-2.8099,-2.8213,-2.8147,0,0,0,0,0,0,0,0,0,0,-2.8064,-2.8047,-2.7991,-2.7993,-2.8015,-2.8099,-2.8099,-2.8143,-2.8151,-2.8177,0,-2.8201,0,-2.821,-2.8222,-2.8222,0,0,0,-2.8012,-2.8041,-2.8061,-2.7993,-2.8016,-2.8099,-2.806,-2.8148,-2.8156,-2.8187,-2.8203,-2.8207,-2.8212,-2.8223,-2.8223,-2.8384,-2.8385,0,0,-2.8007,-2.8008,-2.8055,-2.8066,-2.8054,-2.8057,-2.8063,-2.8152,-2.817,-2.8203,-2.821,-2.8213,-2.8224,-2.8224,-2.8384,-2.8385,0,0,0,-2.7996,-2.8004,-2.8022,-2.8062,-2.8077,-2.806,-2.8066,-2.8166,-2.8172,-2.8211,-2.8215,-2.8224,-2.8226,-2.8383,-2.8384,-2.8427,0,0,0,-2.7993,-2.7998,-2.802,-2.8021,-2.8075,-2.8122,-2.8078,-2.8165,-2.8175,-2.8214,-2.8224,-2.8227,-2.8382,-2.8383,-2.8424,-2.8447,0,0,0,-2.7984,-2.7997,-2.801,-2.8021,-2.8057,-2.8121,-2.8132,-2.8168,-2.8178,-2.8223,-2.8227,-2.8381,-2.8383,-2.8421,-2.8442,-2.8489,0,0,0,-2.7975,-2.8047,-2.8011,-2.8093,-2.8057,-2.8147,-2.8131,-2.8198,-2.8242,-2.8225,-2.8382,-2.8384,-2.842,-2.8439,-2.8486,-2.8528,-2.8545,0,0,-2.8066,-2.8058,-2.8106,-2.8076,-2.8173,-2.8134,-2.8238,-2.8277,-2.8281,-2.835,-2.8354,-2.8425,-2.8442,-2.8488,-2.8647,-2.8661,0,0,0,-2.8135,-2.817,-2.8196,-2.8237,-2.827,-2.8299,-2.8322,-2.8337,-2.8396,-2.8316,-2.8455,-2.8465,-2.8492,-2.8512,-2.8524,-2.8547,-2.8393,-2.8393,-2.8393,-2.8263,-2.8265,-2.8345,-2.8358,-2.8399,-2.8423,-2.8456,-2.848,-2.847,-2.8503,-2.8522,-2.8618,-2.8642,-2.8651,-2.8675,-2.8546,-2.8546,-2.8546,-2.8546,-2.8396,-2.8445,-2.8431,-2.8503,-2.8505,-2.8566,-2.8593,-2.8584,-2.8641,-2.8603,-2.8627,-2.8585,-2.8666,-2.8687,-2.8549,-2.8549,-2.8548,-2.8548,-2.8548,-2.8479,-2.8502,-2.852,-2.8581,-2.8628,-2.8639,-2.8695,-2.8695,-2.8695,-2.8719,-2.874,-2.8739,-2.8737,-2.8729,-2.873,-2.873,-2.873,-2.873,-2.8731,-2.8557,-2.8575,-2.8622,-2.8664,-2.8691,-2.8727,-2.8754,-2.8781,-2.8811,-2.8806,-2.8806,-2.8792,-2.8674,-2.8644,-2.8736,-2.8735,-2.8734,-2.8734,-2.8733,-2.8688,-2.8659,-2.8731,-2.8759,-2.8808,-2.8855,-2.8855,-2.891,-2.8933,-2.896,-2.8942,-2.8856,-2.8847,-2.8837,-2.8812,-2.8942,-2.8942,-2.8942,-2.8942,-2.8757,-2.8753,-2.8828,-2.8872,-2.8915,-2.8923,-2.9005,-2.9028,-2.9046,-2.906,-2.9042,-2.9009,-2.8999,-2.8996,-2.8983,-2.8959,-2.9124,-2.9124,-2.9124,-2.8837,-2.8838,-2.8907,-2.8925,-2.8965,-2.8998,-2.9076,-2.9127,-2.9142,-2.9132,-2.9071,-2.9063,-2.901,-2.8993,-2.8979,-2.8959,-2.8915,0,0]},{"header":{"parameterUnit":"m.s-1","parameterCategory":1,"la1":30.2992,"la2":30.254,"lo1":-89.0895,"lo2":-89.0443,"dy":0.0025,"dx":0.0025,"nx":19,"ny":19,"refTime":"2026-04-26T21:00:00:Z","depth":0,"parameterNumber":3,"parameterNumberName":"V-component_of_WINDS"},"data":[0,0,0,2.9536,2.9537,2.9559,2.9559,2.9595,2.9596,0,0,0,0,0,0,0,0,0,0,0,2.9535,2.9535,2.9536,2.9537,2.9559,2.9559,2.9595,2.9596,0,0,0,0,0,0,0,0,0,0,0,2.9535,2.9535,2.9536,2.9537,2.9559,2.9559,2.9595,2.9575,0,0,0,0,0,0,0,0,0,0,2.9553,2.9557,2.9535,2.9536,2.9537,2.9559,2.9559,2.9574,2.9577,2.9589,0,2.9602,0,2.96,2.9599,2.9599,0,0,0,2.9532,2.9555,2.9556,2.9536,2.9537,2.9559,2.9547,2.9575,2.9578,2.9592,2.9602,2.9603,2.96,2.9599,2.9599,2.9688,2.9688,0,0,2.9531,2.9541,2.9554,2.9558,2.9556,2.9547,2.9548,2.9577,2.9588,2.9602,2.9604,2.9601,2.9599,2.96,2.9687,2.9688,0,0,0,2.9531,2.9541,2.9541,2.9557,2.956,2.9548,2.9549,2.9587,2.9586,2.9605,2.9601,2.96,2.96,2.9686,2.9687,2.9729,0,0,0,2.953,2.954,2.9541,2.9547,2.956,2.9574,2.9559,2.9584,2.9587,2.9601,2.96,2.9601,2.9686,2.9687,2.9726,2.9747,0,0,0,2.9532,2.9541,2.9546,2.9548,2.9558,2.9573,2.9574,2.9585,2.9586,2.9599,2.9601,2.9685,2.9687,2.9724,2.9743,2.9774,0,0,0,2.9536,2.9581,2.9547,2.9595,2.9558,2.9599,2.9574,2.9604,2.962,2.96,2.9686,2.9687,2.9723,2.974,2.9771,2.9802,2.9816,0,0,2.9598,2.9589,2.9617,2.9587,2.9637,2.9595,2.9651,2.9655,2.9646,2.9674,2.9676,2.9727,2.9742,2.9773,2.9889,2.99,0,0,0,2.964,2.966,2.9671,2.9688,2.9693,2.97,2.9695,2.9697,2.9721,2.9663,2.9746,2.9755,2.9773,2.9787,2.9796,2.9811,2.9694,2.9694,2.9694,2.9742,2.973,2.9775,2.9767,2.9783,2.9779,2.9791,2.9793,2.9774,2.9794,2.9802,2.9874,2.9891,2.9898,2.9914,2.9817,2.9818,2.9818,2.9818,2.9832,2.9859,2.9836,2.9872,2.9859,2.9888,2.9886,2.9873,2.9899,2.9866,2.9881,2.9848,2.9911,2.9924,2.9821,2.982,2.982,2.982,2.9819,2.9898,2.9909,2.9912,2.9936,2.9956,2.9945,2.9972,2.9959,2.9946,2.9961,2.9969,2.9968,2.9967,2.9966,2.9966,2.9966,2.9967,2.9967,2.9967,2.9965,2.9967,2.9992,3.0003,3.0013,3.0025,3.0022,3.0031,3.0038,3.0026,3.0026,3.0007,2.9919,2.9898,2.9971,2.997,2.997,2.9969,2.9969,3.0062,3.0039,3.0077,3.0087,3.01,3.0122,3.0105,3.0126,3.0132,3.0146,3.0123,3.006,3.0049,3.0042,3.0024,3.0125,3.0125,3.0125,3.0125,3.0118,3.0112,3.0149,3.0167,3.0183,3.0172,3.0216,3.0215,3.021,3.0213,3.0196,3.0171,3.0164,3.0157,3.0147,3.0131,3.0257,3.0257,3.0257,3.0178,3.0173,3.0213,3.0209,3.0219,3.0227,3.0269,3.029,3.0279,3.0262,3.0215,3.021,3.017,3.0157,3.0139,3.0123,3.0092,0,0]}]]